SALSAT

Last updated on Sat Apr 13 2024 01:02:57 GMT+0100 (British Summer Time)

1 46495U 20068K 24103.45058098 .00005579 00000+0 32947-3 0 9996 2 46495 97.8112 61.1760 0014382 170.1452 190.0063 15.11854948194376
UTC large
Height (km)
Speed (km/s)
/
Latitude / Longitude
Inclination (degrees)
Orbital Period (minutes)
Azimuth
Elevation
Range (km)
Doppler Factor

Next 0 passes for location: London (51.5072 / 0.1276)

Sorry there are no passes over London.